Flag for Congo Weather past 2 weeks in Pointe-Noire, Congo

Now
77 °F

Passing clouds.


Feels Like: 79 °F
Forecast: 71 / 80 °F
Wind: 7 mph from Southwest

Location: Pointe Airport-Noire

Current Time: Jul 7, 2015 at 12:35:11 PM

Latest Report: Jul 7, 2015 at 12:00 PM


Visibility: 6 mi

Pressure: 29.95 "Hg

Humidity: 79%

Dew point: 70 °F

Location of Pointe-NoireLocation

Historic Weather in Pointe-Noire — Graph

°F

Pointe-Noire temperature yesterday

Maximum temperature yesterday: 77 °F (at 2:00 PM)
Minimum temperature yesterday: 70 °F (at 3:00 AM)
Average temperature yesterday: 73 °F

Past Weeks' High & Low Weather Summary

 TemperatureHumidityPressure
High81 °F (Jul 3, 2:00 PM)100% (Jun 23, 1:00 AM)30.15 "Hg (Jun 23, 1:00 AM)
Low64 °F (Jun 28, 5:00 AM)54% (Jun 28, 11:00 AM)29.89 "Hg (Jul 5, 4:00 PM)
Average72 °F85%30.02 "Hg
* Reported Jun 22 11:00 AM — Jul 7 11:00 AM, Pointe-Noire, Weather by CustomWeather, © 2015

Note: Actual official high and low records may vary slightly from our data, if they occured in-between our weather recording intervals... More about our weather records

Advertising

Pointe-Noire weather history for previous 24 hours

 ConditionsComfort  
Time TempWeatherWind HumidityBarometerVisibility
11:00 AM
Tue, Jul 7
79 °FPartly sunny.7 mph70%29.95 "Hg6 mi
10:00 AM77 °FPartly sunny.7 mph79%29.98 "Hg6 mi
9:00 AM73 °FFog.5 mph83%29.98 "Hg3 mi
8:00 AM73 °FFog.2 mph83%29.95 "Hg3 mi
7:00 AM72 °FFog.2 mph88%29.95 "Hg2 mi
6:00 AM72 °FPassing clouds.2 mph88%29.95 "Hg4 mi
5:00 AM72 °FPassing clouds.No wind88%29.95 "Hg4 mi
4:00 AM72 °FPassing clouds.2 mph88%29.92 "Hg4 mi
1:00 AM72 °FOvercast.6 mph88%29.95 "Hg4 mi
12:00 AM72 °FOvercast.7 mph88%29.98 "Hg4 mi
11:00 PM
Mon, Jul 6
73 °FPassing clouds.5 mph78%29.98 "Hg4 mi
10:00 PM73 °FPassing clouds.6 mph78%29.95 "Hg4 mi
9:00 PM73 °FPassing clouds.5 mph78%29.95 "Hg4 mi
8:00 PM73 °FPassing clouds.6 mph83%29.92 "Hg4 mi
7:00 PM73 °FPartly cloudy.6 mph83%29.92 "Hg4 mi
6:00 PM73 °FScattered clouds.6 mph83%29.89 "Hg4 mi
5:00 PM73 °FBroken clouds.7 mph83%29.89 "Hg5 mi
4:00 PM75 °FBroken clouds.9 mph78%29.89 "Hg5 mi
3:00 PM77 °FMore clouds than sun.10 mph74%29.92 "Hg5 mi
2:00 PM77 °FScattered clouds.12 mph74%29.92 "Hg5 mi
1:00 PM75 °FMore clouds than sun.14 mph78%29.98 "Hg5 mi
12:00 PM75 °FScattered clouds.10 mph78%29.98 "Hg4 mi
Weather by CustomWeather, © 2015

See weather overviewHow to use our weather pages